Location: *
(49.5667°N, 1.3667°W)
Time: 08:21:43
(UTC+00:00)

Meteor 2-17 Rocket - Pass Details

Date: 20 September 2019
Orbit: 934 x 957 km, 82.5° (Epoch: 19 October)

Event Time Altitude Azimuth Distance (km) Brightness Sun altitude
Rises 19:34:53 0° 350° (N) 3,621 7.9 -14.5°
Reaches altitude 10° 19:37:24 10° 352° (N) 2,669 7.2 -14.9°
Maximum altitude 19:43:30 79° 80° (E) 961 4.3 -15.8°
Drops below altitude 10° 19:49:33 10° 167° (SSE) 2,640 6.4 -16.8°
Enters shadow 19:50:25 - 167° (SSE) 2,967 6.7 -16.9°
